星链-35266(STARLINK-35266)

导读

STARLINK-35266是美国于北京时间2025年9月26日发射的星链计划卫星,星链是太空探索技术公司(SpaceX)打造的大型卫星互联网星座,旨在为全球提供高速低延迟宽带网络服务,该卫星入轨后将和已发射的数千颗星链卫星共同组网,补充完善星座规模,提升全球网络覆盖能力。

Basic Information
目录编号:
65804
目录名称:
STARLINK-35266
国际标识:
2025-218P
轨道中心:
EARTH
卫星名称:
星链-35266
卫星全名:
星链-35266(STARLINK-35266)
卫星状态:
在轨 (已飞行343 天)
发射日期:
2025-09-26 UTC
国别 :
美国 (US)
星等 :
--
Orbit Information
数据来源 国际轨道数据
星历时间: 2026-09-04T14:00:02+0800
9小时前
查看轨道信息
半长轴: 6872.726km
偏心率: 0.0001719
轨道倾角: 97.287°
近地点辐角 90.713°
升交点赤经 104.815°
平近点角 184.975°
近地点: 493.407km
远地点: 495.771km
周期: 94.505分钟
每日圈数: 15.237344
Detailed Information
固有亮度:
5
最大亮度:
2.5
卫星平台:
Starlink V1.0
覆盖范围:
全球
运营商:
太空探索技术公司
运营商所在国:
美国
制造商(研发单位):
太空探索技术公司
制造商所在国:
美国
使用方式:
暂无
Satellite Introduction
Starlink 计划是 SpaceX 推出的全球卫星互联网项目,通过发射低轨道卫星,为全球尤其是偏远地区提供高速、低延迟的互联网服务。自 2019 年起,Starlink 已部署数千颗卫星,旨在缩小全球数字鸿沟,推动互联网普及。该项目还为军事、航空等行业提供通信支持,带来广泛经济效益。
2D Orbit Map
3D Orbit Map
Orbit Altitude Analysis Chart
Orbit Inclination Analysis Chart
Orbit Comprehensive Analysis Chart
View Comprehensive Chart
Conjunction Data List
Event ID Objects TCA Miss Dist (km) Collision Risk Probability Collision Risk Index (CRI) Action
CDM_260904-180005-918806-580421
2026-09-04T
18:00:54+0000
0.748 km
远距离
5.042113E-5 中风险 0.69
CDM_260906-031806-580406-584521
2026-09-06T
03:18:50+0000
1.402 km
极远距离
8.097102E-6 低风险 0.53
CDM_260905-002406-580406-745121
2026-09-05T
00:24:20+0000
1.413 km
极远距离
7.986622E-6 低风险 0.53
CDM_260905-094305-418706-580421
2026-09-05T
09:43:22+0000
1.701 km
极远距离
4.458558E-6 低风险 0.48
CDM_260906-005206-580406-616221
2026-09-06T
00:52:50+0000
1.809 km
极远距离
3.730368E-6 低风险 0.46
CDM_260905-021205-546906-580421
2026-09-05T
02:12:38+0000
1.729 km
极远距离
3.322473E-6 低风险 0.45
CDM_260904-221705-536406-580421
2026-09-04T
22:17:45+0000
1.902 km
极远距离
2.753851E-6 低风险 0.44
CDM_260906-020605-893306-580421
2026-09-06T
02:06:32+0000
2.155 km
极远距离
1.956926E-6 低风险 0.41
CDM_260905-000006-240706-580421
2026-09-05T
00:00:48+0000
2.351 km
极远距离
1.791221E-6 低风险 0.4
CDM_260905-103005-418706-580421
2026-09-05T
10:30:19+0000
2.975 km
极远距离
1.33875E-6 低风险 0.38